Location: Guayaquil
(2.1667°S, 79.9000°W)
Time: 10:01:41
(UTC-05:00)

Envisat - Pass Details

Date: 16 August 2020
Orbit: 764 x 766 km, 98.1° (Epoch: 23 September)

Event Time Altitude Azimuth Distance (km) Brightness Sun altitude
Rises 05:09:18 0° 42° (NE) 3,215 7.1 -18.6°
Reaches altitude 10° 05:12:15 10° 60° (ENE) 2,292 6.6 -17.9°
Maximum altitude 05:15:43 19° 103° (ESE) 1,773 5.7 -17.1°
Drops below altitude 10° 05:19:10 10° 146° (SSE) 2,300 5.7 -16.2°
Sets 05:22:06 0° 164° (SSE) 3,229 6.3 -15.5°
